Tracking 19638 objects as of 21-May-2019
HD Live streaming from Space Station
objects crossing your sky now

APRIZESAT 1

Track APRIZESAT 1 now!
10-day predictions
APRIZESAT 1 is classified as:


NORAD ID: 28372
Int'l Code: 2004-025G
Perigee: 700.3 km
Apogee: 767.9 km
Inclination: 98.3 °
Period: 99.3 minutes
Semi major axis: 7105 km
RCS: 0.0588 m2 (small)
Launch date: June 29, 2004
Source: United States (US)
Launch site: TYURATAM MISSILE AND SPACE COMPLEX (TTMTR)

Messaging services.
aabbcc
Your satellite tracking list
Your tracking list is empty




NASA's NSSDC Master Catalog

Two Line Element Set (TLE):
1 28372U 04025G   19140.09462114 -.00000011  00000-0  88787-5 0  9991
2 28372  98.3436  87.0012 0047570 103.1920 257.4588 14.49587781787256
Source of the keplerian elements: AFSPC